FW4317 Weather Reports


time (UTC)temp
F
wind
direction
speed
knots
gust
knots
rain 1hr
in
rain 24hr
in
rain mn
in
humidity
%
barometer
mb
20260509011516 63 133 3.5 7.0 0.23 0.57 0.57 89 1007.0
20260509010516 63 129 2.6 7.0 0.49 0.57 0.57 90 1007.3
20260509005516 62 134 0.9 5.2 0.54 0.56 0.56 89 1007.8
20260509004516 62 130 0.9 5.2 0.50 0.50 0.50 88 1008.1
20260509003516 62 84 0.9 7.8 0.49 0.49 0.49 87 1006.7
20260509002536 62 36 1.7 7.8 0.48 0.48 0.48 87 1007.4
20260509001516 62 356 1.7 7.8 0.34 0.34 0.34 86 1008.2
20260509000536 64 30 4.3 12.2 0.08 0.08 0.08 81 1006.3
20260508235516 68 6 4.3 16.5 0.02 0.02 0.02 75 1008.1
20260508234516 71 16 5.2 13.9 0.00 0.00 0.00 66 1006.6
20260508233516 74 346 4.3 16.5 0.00 0.00 0.00 60 1006.3
20260508232536 78 139 1.7 7.0 0.00 0.00 0.00 55 1006.2
20260508231516 79 153 0.9 3.5 0.00 0.00 0.00 53 1005.5
20260508230516 79 153 0.0 2.6 0.00 0.00 0.00 52 1005.2
20260508225516 80 152 0.0 6.1 0.00 0.00 0.00 50 1005.1
20260508224536 81 163 0.9 4.3 0.00 0.00 0.00 49 1005.3
20260508223516 82 163 0.0 3.5 0.00 0.00 0.00 49 1005.5
20260508222516 82 163 0.9 6.1 0.00 0.00 0.00 48 1005.5
20260508221516 82 163 0.9 6.1 0.00 0.00 0.00 48 1005.6
20260508220516 82 163 0.9 6.1 0.00 0.00 0.00 47 1005.6
20260508215536 82 163 0.9 2.6 0.00 0.00 0.00 48 1005.9
20260508214536 82 163 0.9 4.3 0.00 0.00 0.00 48 1006.1
20260508213516 82 163 0.9 3.5 0.00 0.00 0.00 47 1006.4
20260508212516 82 163 0.9 2.6 0.00 0.00 0.00 47 1006.8
20260508211516 82 163 0.9 7.0 0.00 0.00 0.00 47 1006.8
20260508210516 81 163 0.9 6.1 0.00 0.00 0.00 47 1007.0
20260508205516 81 163 0.9 4.3 0.00 0.00 0.00 46 1007.1
20260508204516 81 163 0.9 5.2 0.00 0.00 0.00 47 1007.4
20260508203516 81 163 0.9 6.1 0.00 0.00 0.00 46 1007.4
20260508202516 81 166 0.9 3.5 0.00 0.00 0.00 46 1007.5
20260508201516 81 165 0.9 7.8 0.00 0.00 0.00 46 1007.7
20260508200516 81 165 0.9 5.2 0.00 0.00 0.00 47 1007.9
20260508195516 80 165 0.9 7.0 0.00 0.00 0.00 48 1008.0
20260508194536 80 164 0.9 6.1 0.00 0.00 0.00 47 1008.2
20260508193516 79 164 0.9 7.8 0.00 0.00 0.00 49 1008.3
20260508192516 78 163 0.9 6.1 0.00 0.00 0.00 49 1008.5
20260508191536 78 165 1.7 7.8 0.00 0.00 0.00 51 1008.5
20260508190516 77 167 1.7 9.6 0.00 0.00 0.00 49 1008.6
20260508185516 78 166 0.9 6.1 0.00 0.00 0.00 48 1008.7
20260508184516 78 165 0.9 7.8 0.00 0.00 0.00 47 1008.9
20260508183516 78 165 1.7 5.2 0.00 0.00 0.00 49 1009.0
20260508182516 78 165 0.9 7.0 0.00 0.00 0.00 48 1009.2
20260508181536 77 165 0.9 7.8 0.00 0.00 0.00 50 1009.4
20260508180516 77 167 0.9 7.0 0.00 0.00 0.00 51 1009.6
20260508175516 76 167 0.9 8.7 0.00 0.00 0.00 52 1009.8
20260508174516 76 167 1.7 6.1 0.00 0.00 0.00 53 1010.0
20260508173556 76 167 2.6 8.7 0.00 0.00 0.00 51 1010.2
20260508172516 75 163 0.9 8.7 0.00 0.00 0.00 54 1010.3
20260508171516 75 163 0.9 6.1 0.00 0.00 0.00 54 1010.7
20260508170516 74 163 0.9 6.1 0.00 0.00 0.00 54 1010.7
20260508165516 74 162 0.9 6.1 0.00 0.00 0.00 55 1010.9
20260508164516 73 162 0.9 7.0 0.00 0.00 0.00 57 1011.1
20260508163516 72 162 2.6 9.6 0.00 0.00 0.00 58 1011.1
20260508162516 72 167 2.6 7.8 0.00 0.00 0.00 58 1011.4
20260508161516 71 170 1.7 10.4 0.00 0.00 0.00 60 1011.4
20260508160516 71 169 0.9 9.6 0.00 0.00 0.00 59 1011.6
20260508155516 71 178 0.9 7.8 0.00 0.00 0.00 59 1011.6
20260508154516 70 182 0.9 6.1 0.00 0.00 0.00 62 1011.9
20260508153536 69 182 0.9 8.7 0.00 0.00 0.00 62 1012.2
20260508152516 69 184 0.9 7.0 0.00 0.00 0.00 63 1012.3
20260508151536 68 187 1.7 9.6 0.00 0.00 0.00 64 1012.4
20260508150536 67 192 0.9 6.1 0.00 0.00 0.00 66 1012.6
20260508145536 66 209 3.5 9.6 0.00 0.00 0.00 67 1012.7
20260508144516 65 224 0.9 5.2 0.00 0.00 0.00 69 1012.8
20260508143516 65 225 0.9 5.2 0.00 0.00 0.00 71 1013.0
20260508142516 64 227 0.9 4.3 0.00 0.00 0.00 72 1013.1
20260508141516 63 227 0.9 5.2 0.00 0.00 0.00 73 1013.2
20260508140516 62 227 0.9 3.5 0.00 0.00 0.00 74 1013.1
20260508135516 61 227 0.9 3.5 0.00 0.00 0.00 76 1013.3
20260508134516 60 227 0.9 4.3 0.00 0.00 0.00 76 1013.5
20260508133516 59 227 0.9 2.6 0.00 0.00 0.00 77 1013.4
20260508132516 59 227 0.9 3.5 0.00 0.00 0.00 77 1013.5
20260508131516 58 227 0.9 3.5 0.00 0.00 0.00 78 1013.5
20260508130516 57 227 0.0 1.7 0.00 0.00 0.00 80 1013.6
20260508125516 56 227 0.0 1.7 0.00 0.00 0.00 80 1013.5
20260508124536 55 227 0.0 2.6 0.00 0.00 0.00 81 1013.5
20260508123516 55 227 0.0 0.9 0.00 0.00 0.00 83 1013.4
20260508122516 54 228 0.0 1.7 0.00 0.00 0.00 83 1013.4
20260508121516 54 0.0 0.0 0.00 0.00 0.00 83 1013.3
20260508120516 53 229 0.0 1.7 0.00 0.00 0.00 83 1013.3
20260508115516 53 0.0 0.9 0.00 0.00 0.00 82 1013.2
20260508114516 53 229 0.0 3.5 0.00 0.00 0.00 82 1013.1
20260508113516 53 229 0.0 2.6 0.00 0.00 0.00 82 1013.1
20260508112616 53 0.0 0.0 0.00 0.00 0.00 81 1013.0
20260508111536 53 229 0.0 2.6 0.00 0.00 0.00 80 1012.9
20260508110516 53 229 0.0 3.5 0.00 0.00 0.00 80 1012.7
20260508105536 53 229 0.9 5.2 0.00 0.00 0.00 79 1012.6
20260508104516 54 229 0.9 4.3 0.00 0.00 0.00 78 1012.5
20260508103516 54 229 0.9 5.2 0.00 0.00 0.00 77 1012.4
20260508102516 54 232 0.9 4.3 0.00 0.00 0.00 76 1012.4
20260508101516 54 232 0.9 5.2 0.00 0.00 0.00 76 1012.3
20260508100536 55 232 0.9 4.3 0.00 0.00 0.00 75 1012.2
20260508095516 54 233 0.9 6.1 0.00 0.00 0.00 75 1012.2
20260508094536 54 238 0.9 5.2 0.00 0.00 0.00 75 1012.1
20260508093516 54 240 0.9 4.3 0.00 0.00 0.00 75 1012.1
20260508092536 54 240 0.9 4.3 0.00 0.00 0.00 76 1012.2
20260508091516 54 240 0.9 3.5 0.00 0.00 0.00 77 1012.2
20260508090516 54 241 0.0 1.7 0.00 0.00 0.00 76 1012.3
20260508085516 54 241 0.0 4.3 0.00 0.00 0.00 76 1012.3
20260508084516 54 0.0 0.9 0.00 0.00 0.00 76 1012.2
20260508083516 55 241 0.0 2.6 0.00 0.00 0.00 76 1012.3
20260508082516 55 241 0.0 1.7 0.00 0.00 0.00 76 1012.4
20260508081516 55 241 0.0 2.6 0.00 0.00 0.00 76 1012.4
20260508080516 55 241 0.0 2.6 0.00 0.00 0.00 75 1012.5
20260508075516 55 241 0.0 3.5 0.00 0.00 0.00 74 1012.6
20260508074516 55 241 0.9 3.5 0.00 0.00 0.00 73 1012.7
20260508073516 56 241 0.9 4.3 0.00 0.00 0.00 72 1012.8
20260508072516 56 242 0.9 3.5 0.00 0.00 0.00 71 1012.9
20260508071516 56 242 0.0 3.5 0.00 0.00 0.00 70 1013.1
20260508070536 57 242 0.9 2.6 0.00 0.00 0.00 69 1013.3
20260508065516 57 242 0.9 3.5 0.00 0.00 0.00 68 1013.4
20260508064516 57 242 0.9 4.3 0.00 0.00 0.00 68 1013.5
20260508063516 57 242 0.0 2.6 0.00 0.00 0.00 68 1013.5
20260508062536 57 242 0.0 2.6 0.00 0.00 0.00 68 1013.6
20260508061516 57 242 0.9 3.5 0.00 0.00 0.00 68 1013.5
20260508060516 57 242 0.0 2.6 0.00 0.00 0.00 69 1013.5
20260508055516 58 243 0.0 3.5 0.00 0.00 0.00 69 1013.4
20260508054536 58 244 0.9 4.3 0.00 0.00 0.00 69 1013.4
20260508053516 58 244 0.9 4.3 0.00 0.00 0.00 68 1013.4
20260508052516 58 245 0.0 4.3 0.00 0.00 0.00 67 1013.5
20260508051516 58 246 0.0 2.6 0.00 0.00 0.00 66 1013.5
20260508050536 58 247 0.9 3.5 0.00 0.00 0.00 66 1013.5
20260508045516 59 247 0.0 1.7 0.00 0.00 0.00 65 1013.5
20260508044536 59 0.0 1.7 0.00 0.00 0.00 64 1013.6
20260508043516 59 0.0 1.7 0.00 0.00 0.00 64 1013.7
20260508042516 59 247 0.0 1.7 0.00 0.00 0.00 63 1013.7
20260508041516 60 247 0.0 2.6 0.00 0.00 0.00 63 1013.7
20260508040536 60 247 0.0 1.7 0.00 0.00 0.00 62 1013.6
20260508035536 60 247 0.0 1.7 0.00 0.00 0.00 61 1013.7
20260508034516 60 247 0.0 1.7 0.00 0.00 0.00 61 1013.7
20260508033516 60 247 0.0 1.7 0.00 0.00 0.00 60 1013.8
20260508032516 61 247 0.0 1.7 0.00 0.00 0.00 59 1013.8
20260508031516 61 247 0.0 1.7 0.00 0.00 0.00 59 1013.8
20260508030516 61 0.0 1.7 0.00 0.00 0.00 58 1013.7
20260508025536 62 247 0.0 1.7 0.00 0.00 0.00 57 1013.6
20260508024516 62 247 0.0 1.7 0.00 0.00 0.00 56 1013.5
20260508023516 63 248 0.0 1.7 0.00 0.00 0.00 55 1013.5
20260508022516 63 247 0.0 0.9 0.00 0.00 0.00 54 1013.4
20260508021517 64 247 0.0 1.7 0.00 0.00 0.00 53 1013.2
20260508020556 64 0.0 1.7 0.00 0.00 0.00 52 1013.2
20260508015516 65 247 0.0 1.7 0.00 0.00 0.00 51 1013.2
20260508014516 65 0.0 0.0 0.00 0.00 0.00 50 1013.1
20260508013516 66 0.0 0.0 0.00 0.00 0.00 49 1012.9
20260508012556 67 0.0 0.0 0.00 0.00 0.00 47 1012.8